Probability
0 0 0 0 0 0 0 0 0 0 0 0 0 0 0 0 0 0 0 0 0 0 0 0 0 0 1 1 1 0 0 0 0 0 0 0 0 0 0 0 0 0 0 0
0 0 0 0 0 0 0 0 0 0 0 0 0 0 0 0 0 0 0 0 0 0 0 0 0 0 0 0 0 0 0 0 0 0 0 0 0 0 0 0 0 0 0 0
0 0 0 0 0 0 0 0 0 0 0 0 0 0 0 0 0 0 0 0 0 0 0 0 0 0 0 0 0 0 0 0 0 0 0 0 0 0 0 0 0 0 0 0
0 0 0 0 0 0 0 0 0 0 0 0 0 0 0 0 0 0 0 0 0 0 0 0 0 0 0 0 0 0 0 0 0 0 0 0 0 0 0 0 0 0 0 0
0 0 0 0 0 0 0 0 0 0 0 0 0 0 0 0 0 0 0 0 0 0 0 0 0 0 0 0 0 0 0 0 0 0 0 0 0 0 0 0 0 0 0 0
0 0 0 0 0 0 0 0 0 0 0 0 0 0 0 0 0 0 0 0 0 0 0 0 0 0 0 0 0 0 0 0 0 0 0 0 0 0 0 0 0 0 0 0
0 0 0 0 0 0 0 0 0 0 0 0 0 0 0 0 0 0 0 0 0 0 0 1 0 0 0 0 0 0 0 0 0 0 0 0 0 0 0 0 0 0 0 0
0 0 0 0 0 0 0 0 0 0 0 0 0 0 0 0 0 0 0 0 0 0 0 0 0 0 0 0 0 0 0 0 0 0 0 0 0 0 0 0 0 0 0 0
0 0 0 0 0 0 0 0 0 0 0 0 0 0 0 0 0 0 0 0 0 0 0 0 0 0 0 0 0 0 0 0 0 0 0 0 0 0 0 0 0 0 0 0
0 0 0 0 0 0 0 0 0 0 0 0 0 0 0 0 0 0 0 0 0 0 0 0 0 0 0 0 0 0 0 0 0 0 0 0 0 0 0 0 0 0 0 0
0 0 0 0 0 0 0 0 0 0 0 0 0 0 0 0 0 0 0 0 0 0 0 0 0 0 0 0 0 0 0 0 0 0 0 0 0 0 0 0 0 0 0 0
0 0 0 0 0 0 0 0 0 0 0 0 0 0 0 0 0 0 0 0 0 0 0 0 0 0 0 0 0 0 0 0 0 0 0 0 0 0 0 0 0 0 0 0
0 0 0 0 0 0 0 0 0 0 0 0 0 0 0 0 0 0 0 0 0 0 0 0 0 0 0 0 0 0 0 0 0 0 0 0 0 0 0 0 0 0 0 0
0 0 0 0 0 0 0 0 0 0 0 0 0 0 0 0 0 0 0 0 0 0 0 0 0 0 0 0 0 0 0 0 0 0 0 0 0 0 0 0 0 0 0 0
0 0 0 0 0 0 0 0 0 0 0 0 0 0 0 0 0 0 0 0 0 0 0 0 0 0 0 0 0 0 0 0 0 0 0 0 0 0 0 0 0 0 0 0
0 0 0 0 0 0 0 0 0 0 0 0 0 0 0 0 0 0 0 0 0 0 0 0 0 0 0 0 0 0 0 0 0 0 0 0 0 0 0 0 0 0 0 0
0 0 0 0 0 0 0 0 0 0 0 0 0 0 0 0 0 0 0 0 0 0 0 0 0 0 0 0 0 0 0 0 0 0 0 0 0 0 0 0 0 0 0 0
0 0 0 0 0 0 0 0 0 0 0 0 0 0 0 0 0 0 0 0 0 0 0 0 0 0 0 0 0 0 0 0 0 0 0 0 0 0 0 0 0 0 0 0
0 0 0 0 0 0 0 0 0 0 0 0 0 0 0 0 0 0 0 0 0 0 0 0 0 0 0 0 0 0 0 0 0 0 0 0 0 0 0 0 0 0 0 0
0 0 0 0 0 0 0 0 0 0 0 0 0 0 0 0 0 0 0 0 0 0 0 0 0 0 0 0 0 0 0 0 0 0 0 0 0 0 0 0 0 0 0 0
0 0 0 0 0 0 0 0 0 0 0 0 0 0 0 0 0 0 0 0 0 0 0 0 0 0 0 0 0 0 0 0 0 0 0 0 0 0 0 0 0 0 0 0
0 0 0 0 0 0 0 0 0 0 0 0 0 0 0 0 0 0 0 0 0 0 0 0 0 0 0 0 0 0 0 0 0 0 0 0 0 0 0 0 0 0 0 0
0 0 0 0 0 0 0 0 0 0 0 0 0 0 0 0 0 0 0 0 0 0 0 0 0 0 0 0 0 0 0 0 0 0 0 0 0 0 0 0 0 0 0 0
0 0 0 0 0 0 0 0 0 0 0 0 0 0 0 0 0 0 0 0 0 0 0 0 0 0 0 0 0 0 0 0 0 0 0 0 0 0 0 0 0 0 0 0
0 0 0 0 0 0 0 0 0 0 0 0 0 0 0 0 0 0 0 0 0 0 0 0 0 0 0 0 0 0 0 0 0 0 0 0 0 0 0 0 0 0 0 0
0 0 0 0 0 0 0 0 0 0 0 0 0 0 0 0 0 0 0 0 0 0 0 0 0 0 0 0 0 0 0 0 0 0 0 0 0 0 0 0 0 0 0 0
Wind_Speed
6 7 4 2 1 3 4 5 3 1 1 3 3 1 2 1 2 2 2 3 3 3 3 4 5 3 3 2 2 1 1 1 1 1 1 1 1 1 1 1 2 2 2 1
7 6 3 2 3 5 5 4 2 1 2 2 2 1 1 1 1 1 1 2 3 4 6 6 5 5 3 3 2 1 1 1 1 0 0 0 0 0 1 1 2 2 1 2
7 2 3 4 5 5 4 3 2 1 3 2 2 2 1 1 1 2 2 1 2 2 3 4 5 5 4 4 3 2 2 2 2 1 1 1 1 1 1 2 2 3 2 2
5 4 4 5 4 3 1 1 2 2 3 1 1 1 3 1 2 2 2 2 3 3 3 3 4 4 5 4 3 2 2 2 2 1 1 1 0 1 2 2 2 3 3 3
3 3 4 4 2 1 1 0 2 2 2 1 1 1 5 2 3 4 3 2 2 3 2 2 3 3 4 4 3 3 3 3 3 3 1 1 1 1 1 2 2 2 3 3
2 2 2 2 2 1 0 3 4 4 3 1 2 2 4 3 4 3 3 3 2 2 2 2 3 3 4 5 4 4 3 4 4 3 3 2 1 2 2 2 2 2 2 2
4 4 4 3 3 4 4 4 4 5 4 3 1 1 6 4 3 2 2 2 2 2 2 2 3 4 4 5 5 4 4 4 4 3 3 2 2 1 2 2 2 2 2 2
3 2 4 3 1 0 1 3 5 4 3 3 2 3 5 2 1 0 0 1 2 2 2 2 2 2 3 4 4 4 4 4 4 3 3 2 2 1 1 2 2 2 2 2
3 1 2 2 2 1 2 2 2 4 2 1 3 4 6 1 1 1 1 2 2 2 2 2 2 2 2 3 3 3 3 3 4 3 3 3 3 2 2 3 2 2 2 3
3 2 2 2 2 3 2 3 4 4 3 1 4 4 4 4 4 2 2 2 2 2 2 2 2 2 2 2 2 2 2 2 3 3 3 3 3 3 3 3 3 3 4 4
2 4 1 2 1 1 1 2 3 3 3 4 2 6 5 5 4 4 4 3 2 2 2 2 2 2 2 2 2 2 2 3 3 3 3 3 3 3 3 3 3 3 3 4
1 4 1 2 2 1 1 2 4 3 2 2 2 8 3 4 3 4 4 3 2 2 2 2 2 2 2 3 2 2 2 2 3 3 3 3 3 4 4 4 4 4 4 4
3 5 3 4 3 2 1 2 2 3 3 3 4 8 2 0 1 2 3 3 2 2 2 2 2 2 2 2 2 2 2 2 2 2 2 3 3 3 4 4 4 4 4 4
4 3 5 6 5 3 3 3 4 4 4 5 8 9 6 4 4 4 4 3 3 2 2 2 2 2 2 2 2 2 2 2 2 2 2 2 3 3 3 3 3 3 3 3
4 2 1 2 2 2 4 6 7 8 8 9 8 8 11 8 6 6 4 3 3 3 3 3 3 3 2 2 2 2 2 2 1 1 2 2 2 2 3 3 3 3 3 3
3 4 1 2 2 2 5 8 9 9 7 9 7 11 11 6 4 4 5 5 5 5 4 4 3 3 3 3 3 2 3 2 1 1 2 2 2 2 2 2 2 3 3 3
3 5 3 3 4 4 9 10 12 8 8 9 12 13 6 4 6 6 6 6 7 6 5 5 5 4 4 4 3 3 3 2 1 1 2 2 2 2 2 2 2 2 3 3
6 5 3 1 3 6 9 2 7 8 7 10 9 8 7 7 4 4 6 7 7 7 6 5 5 4 4 3 2 2 1 1 1 2 2 2 2 2 2 2 2 2 2 2
3 6 4 3 2 10 10 4 7 7 8 11 13 11 8 3 1 5 7 7 9 8 6 5 5 4 3 3 3 2 1 1 1 2 3 2 2 2 2 2 2 2 2 2
3 4 5 4 3 9 8 2 4 4 7 8 11 12 8 5 2 7 5 5 6 5 4 4 3 3 3 3 2 2 2 2 3 4 3 3 2 2 2 3 2 2 2 2
4 3 4 5 6 13 9 4 5 5 9 4 9 10 9 9 9 5 4 4 4 4 4 4 3 3 4 3 2 3 3 4 5 3 2 2 2 2 2 2 2 1 1 2
11 9 8 7 7 14 7 9 11 11 3 4 6 8 9 9 6 5 5 5 5 4 4 4 3 4 3 3 3 4 5 5 3 2 2 2 2 2 1 1 1 1 1 2
11 12 10 14 13 5 8 10 8 4 4 5 6 6 7 7 7 6 6 6 6 6 5 4 4 4 4 3 4 6 6 3 2 2 3 2 2 2 1 2 2 1 1 2
7 5 6 8 12 9 9 9 7 6 7 6 6 6 6 8 8 7 7 6 6 6 5 4 4 5 5 4 4 6 4 3 3 3 3 2 2 2 2 2 2 2 2 2
9 9 7 9 9 6 9 13 14 11 8 8 8 8 8 8 8 8 8 7 7 6 5 5 6 6 7 5 5 5 4 3 4 4 3 3 3 3 2 2 3 3 3 3
11 13 13 13 11 10 10 9 10 11 12 12 10 9 8 9 10 9 8 7 6 6 5 5 6 6 6 5 5 4 4 4 4 4 4 3 3 3 2 2 3 4 4 5
Wind_Direction
25 56 47 359 54 128 117 113 119 150 11 78 119 166 287 322 46 50 25 12 5 343 332 2 6 3 14 19 28 20 31 14 54 75 49 25 344 348 354 354 356 352 351 347
49 39 339 356 57 80 88 95 88 40 34 78 95 303 282 269 143 117 56 357 348 344 358 2 5 9 10 7 2 10 12 2 347 289 261 249 273 323 322 331 330 320 318 314
89 340 336 54 54 71 62 116 140 123 24 49 71 330 283 321 48 30 9 345 348 338 347 353 358 2 359 1 354 353 354 360 344 341 44 31 25 353 349 338 335 343 347 340
64 354 26 59 43 66 104 153 133 123 87 341 89 279 289 277 338 341 330 341 333 325 340 350 356 3 355 341 346 354 4 12 6 21 84 87 44 290 295 315 327 344 353 355
50 13 35 49 6 43 163 219 122 118 103 40 15 149 290 323 303 295 290 297 314 326 340 348 351 355 350 351 359 359 19 24 22 26 49 77 348 307 332 343 349 349 352 356
63 25 37 356 329 10 107 60 58 55 72 22 246 162 282 261 248 275 292 292 312 322 336 349 359 10 7 2 9 16 28 24 24 33 35 52 22 355 2 351 341 337 339 343
22 12 360 359 32 19 51 83 50 17 15 263 302 159 254 267 249 222 259 307 317 324 348 360 5 5 4 3 3 14 27 19 16 34 31 28 33 16 349 326 329 331 331 331
90 345 343 3 54 70 42 108 138 169 215 283 340 233 257 285 305 114 85 22 5 3 357 351 346 356 353 353 0 9 16 14 14 23 17 6 13 11 345 338 325 314 308 306
131 235 320 338 350 76 98 88 133 120 83 342 282 284 295 300 350 7 9 3 338 320 321 328 341 353 343 344 350 359 10 9 9 12 16 12 8 5 353 350 348 336 333 331
129 130 315 323 24 18 83 130 90 102 124 276 292 265 250 253 249 256 277 281 290 308 323 330 339 344 338 330 340 3 9 0 359 7 10 10 2 357 357 6 2 353 352 357
91 117 348 15 85 215 63 83 98 105 148 157 250 268 226 217 214 213 228 237 263 287 300 306 315 322 334 349 357 357 356 356 358 359 3 7 1 5 7 6 356 352 359 5
116 113 123 269 285 318 168 170 149 149 219 185 199 265 258 207 215 205 223 243 263 271 282 295 307 331 347 347 347 343 344 348 344 349 359 1 360 8 9 0 355 2 6 6
127 110 76 351 335 346 277 212 165 137 127 164 187 256 288 198 246 233 235 256 270 275 288 308 319 320 316 317 320 324 331 326 331 351 359 0 360 1 356 351 356 4 7 9
105 115 164 195 216 188 219 219 181 152 171 205 222 240 264 255 251 257 251 249 252 254 259 276 283 283 286 292 297 301 304 306 323 347 354 348 341 339 338 347 359 3 5 9
102 141 205 260 280 230 232 226 203 202 201 204 228 230 250 243 233 239 242 244 253 259 255 255 257 263 273 285 293 296 297 307 319 345 342 317 325 338 347 355 358 2 6 1
99 132 102 314 327 294 273 249 220 222 219 226 247 265 254 250 233 234 235 231 242 248 247 249 251 256 263 267 273 283 287 296 322 324 304 313 334 345 350 348 353 3 359 353
130 128 127 268 322 355 278 235 201 202 207 191 217 234 235 234 230 224 227 228 233 239 240 241 243 244 249 250 248 253 264 279 290 286 299 316 327 331 330 340 357 354 343 347
138 126 128 126 34 245 244 203 183 198 227 212 224 233 223 223 236 236 226 223 233 236 237 238 239 242 249 248 247 247 254 248 251 275 291 306 310 304 317 338 336 326 332 333
145 137 127 135 232 276 287 233 176 187 256 220 218 232 237 219 316 277 241 217 222 227 228 233 232 230 237 243 240 230 245 251 254 268 276 280 279 288 310 314 306 309 320 320
79 103 124 143 190 243 248 191 165 121 276 235 199 216 214 155 211 253 227 210 220 225 223 225 226 221 229 243 221 209 236 245 253 256 260 265 265 266 274 281 289 300 297 302
150 146 166 180 224 259 247 180 134 176 242 214 186 198 187 193 215 221 196 209 217 226 230 221 210 217 232 232 199 217 235 244 248 253 258 264 257 252 260 276 291 303 304 318
174 173 187 167 205 250 201 153 190 217 221 184 191 196 197 214 226 225 222 223 223 229 233 217 214 234 241 219 201 223 241 248 245 238 245 256 259 255 255 262 284 298 294 294
201 192 186 194 213 238 180 200 217 202 209 214 206 212 202 214 227 229 230 229 229 228 228 219 214 233 248 230 208 224 242 240 228 228 239 246 252 253 252 240 252 269 264 270
230 197 194 240 253 243 233 241 244 228 226 232 222 216 204 219 229 232 233 234 231 231 228 221 214 227 242 239 224 229 238 221 204 223 238 235 231 239 242 243 238 238 243 250
205 176 199 242 258 273 251 232 235 237 235 237 237 229 222 222 232 232 234 233 229 228 226 217 219 230 239 237 237 236 229 203 206 221 233 233 229 231 234 237 237 236 237 231
189 181 187 221 211 205 230 218 213 220 229 229 230 237 230 219 229 233 235 234 228 227 225 224 227 232 238 237 243 242 222 202 202 218 225 224 223 225 228 242 268 266 260 271